Charleston, SC

1:05 PM EST on February 11, 2016 (GMT -0500)
Charleston Air Force Base-International

Weather History for KCHS - October, 2011

Change the Weather History Date:

Thursday, October 13, 2011

  Actual Average Record
Temperature  
Mean Temperature 72 °F 68 °F  
Max Temperature 81 °F 78 °F 89 °F (2014)
Min Temperature 62 °F 58 °F 42 °F (1976)
Degree Days  
Heating Degree Days 0 2  
Month to date heating degree days 17 14  
Since 1 July heating degree days 17 17  
Cooling Degree Days 7 4  
Month to date cooling degree days 50 74  
Year to date cooling degree days 2637 2212  
Growing Degree Days 21 (Base 50)    
Moisture  
Dew Point 67 °F    
Average Humidity 77    
Maximum Humidity 100    
Minimum Humidity 54    
Precipitation  
Precipitation 0.39 in 0.13 in 3.39 in (1994)
Month to date precipitation 0.95 1.87  
Year to date precipitation 34.00 43.61  
Snow  
Snow 0.00 in 0.00 in - ()
Month to date snowfall 0.0  
Since 1 July snowfall 0.0 0.0  
Since 1 September snowfall 0.0 0.0  
Snow Depth 0.00 in    
Sea Level Pressure  
Sea Level Pressure 29.74 in    
Wind  
Wind Speed 8 mph (WSW)    
Max Wind Speed 22 mph    
Max Gust Speed 30 mph    
Visibility 8 miles    
Events Rain    
T = Trace of Precipitation, MM = Missing Value Source: NWS Daily Summary

Daily Weather History Graph

Daily Weather History Graph

Search for Another Location

Airport or City:

Trip Planner

Search our weather history database for the weather conditions in past years. The results will help you decide how hot, cold, wet, or windy it might be!

Date:

Astronomy

Oct. 13, 2011 Rise Set
Actual Time 7:22 AM EDT 6:49 PM EDT
Civil Twilight 6:57 AM EDT 7:14 PM EDT
Nautical Twilight 6:29 AM EDT 7:43 PM EDT
Astronomical Twilight 6:00 AM EDT 8:11 PM EDT
Moon 7:33 PM EDT (10/13) 8:44 AM EDT (10/13)
Length of Visible Light 12h 16m
Length of Day
11h 27m
Full, 98% of the Moon is Illuminated
Oct 13
Full
Oct 19
Last Quarter
Oct 26
New
Nov 2
First Quarter
Nov 10
Full

Hourly Weather History & Observations

Time (EDT) Temp. Heat Index Dew Point Humidity Pressure Visibility Wind Dir Wind Speed Gust Speed Precip Events Conditions
12:10 AM 71.6 °F - 71.6 °F 100% 29.79 in 10.0 mi South 3.5 mph - N/A   Mostly Cloudy
12:42 AM 71.6 °F - 71.6 °F 100% 29.78 in 10.0 mi SSW 4.6 mph - N/A   Scattered Clouds
12:56 AM 71.1 °F - 71.1 °F 100% 29.78 in 8.0 mi SSW 4.6 mph - N/A   Mostly Cloudy
1:50 AM 71.6 °F - 71.6 °F 100% 29.78 in 10.0 mi WSW 5.8 mph - N/A   Mostly Cloudy
1:56 AM 72.0 °F - 71.1 °F 97% 29.78 in 10.0 mi West 8.1 mph - N/A   Mostly Cloudy
2:56 AM 71.1 °F - 70.0 °F 96% 29.76 in 9.0 mi SSW 3.5 mph - N/A   Mostly Cloudy
3:27 AM 69.8 °F - 69.8 °F 100% 29.76 in 9.0 mi SSW 3.5 mph - N/A   Mostly Cloudy
3:56 AM 71.1 °F - 70.0 °F 96% 29.75 in 10.0 mi Calm Calm - N/A   Mostly Cloudy
4:56 AM 70.0 °F - 70.0 °F 100% 29.75 in 8.0 mi West 3.5 mph - N/A   Mostly Cloudy
5:21 AM 69.8 °F - 69.8 °F 100% 29.75 in 2.0 mi WSW 3.5 mph - N/A   Mostly Cloudy
5:27 AM 69.8 °F - 69.8 °F 100% 29.75 in 1.8 mi WSW 3.5 mph - N/A   Overcast
5:33 AM 69.8 °F - 69.8 °F 100% 29.75 in 1.0 mi Calm Calm - N/A   Overcast
5:46 AM 69.8 °F - 69.8 °F 100% 29.75 in 1.0 mi WSW 4.6 mph - N/A   Overcast
5:56 AM 70.0 °F - 70.0 °F 100% 29.75 in 1.0 mi WSW 3.5 mph - N/A   Overcast
6:56 AM 69.1 °F - 69.1 °F 100% 29.75 in 2.0 mi SSW 3.5 mph - N/A   Mostly Cloudy
7:26 AM 69.8 °F - 69.8 °F 100% 29.74 in 2.0 mi WSW 5.8 mph - N/A   Mostly Cloudy
7:56 AM 70.0 °F - 70.0 °F 100% 29.75 in 2.0 mi WSW 5.8 mph - N/A   Overcast
8:40 AM 71.6 °F - 69.8 °F 94% 29.76 in 10.0 mi WSW 6.9 mph - N/A   Mostly Cloudy
8:56 AM 71.1 °F - 68.0 °F 90% 29.77 in 10.0 mi WSW 10.4 mph - N/A   Overcast
9:56 AM 73.0 °F - 66.9 °F 81% 29.77 in 10.0 mi SW 9.2 mph - N/A   Mostly Cloudy
10:56 AM 75.0 °F - 64.9 °F 71% 29.77 in 10.0 mi WSW 9.2 mph - N/A   Mostly Cloudy
11:56 AM 77.0 °F - 63.0 °F 62% 29.76 in 10.0 mi West 9.2 mph - N/A   Scattered Clouds
12:56 PM 75.9 °F - 62.1 °F 62% 29.74 in 10.0 mi West 10.4 mph - N/A   Mostly Cloudy
1:56 PM 79.0 °F - 62.1 °F 56% 29.70 in 10.0 mi WSW 9.2 mph - N/A   Scattered Clouds
2:56 PM 80.1 °F 81.2 °F 62.1 °F 54% 29.69 in 10.0 mi SW 12.7 mph 18.4 mph N/A   Scattered Clouds
3:56 PM 80.1 °F 81.2 °F 62.1 °F 54% 29.68 in 10.0 mi SW 10.4 mph - N/A   Scattered Clouds
4:56 PM 77.0 °F - 63.0 °F 62% 29.67 in 10.0 mi WSW 6.9 mph - N/A   Scattered Clouds
5:56 PM 75.9 °F - 64.9 °F 69% 29.66 in 10.0 mi SSW 11.5 mph - N/A   Partly Cloudy
6:56 PM 72.0 °F - 66.9 °F 84% 29.67 in 10.0 mi South 8.1 mph - N/A   Partly Cloudy
7:56 PM 70.0 °F - 66.9 °F 90% 29.67 in 10.0 mi South 6.9 mph - N/A   Partly Cloudy
8:56 PM 69.1 °F - 68.0 °F 96% 29.67 in 10.0 mi South 6.9 mph - N/A   Partly Cloudy
9:56 PM 70.0 °F - 66.9 °F 90% 29.70 in 10.0 mi WNW 16.1 mph 23.0 mph N/A   Mostly Cloudy
10:11 PM 66.2 °F - 59.0 °F 78% 29.71 in 10.0 mi West 19.6 mph 29.9 mph 0.00 in Rain Light Rain
10:17 PM 64.4 °F - 62.6 °F 94% 29.72 in 2.0 mi WNW 20.7 mph 29.9 mph 0.04 in Rain Heavy Rain
10:43 PM 62.6 °F - 60.8 °F 94% 29.72 in 5.0 mi WNW 9.2 mph - 0.13 in Rain Rain
10:56 PM 62.1 °F - 61.0 °F 96% 29.73 in 5.0 mi WNW 5.8 mph - 0.17 in Rain Rain
11:56 PM 62.1 °F - 61.0 °F 96% 29.73 in 7.0 mi SW 8.1 mph - 0.16 in Rain Rain